Change the Weather History Date:

Monday, March 11, 2013

  Actual Average Record
Temperature  
Mean Temperature 59 °F 55 °F  
Max Temperature 73 °F 68 °F 88 °F (1974)
Min Temperature 45 °F 43 °F 25 °F (1969)
Degree Days  
Heating Degree Days 6 10  
Month to date heating degree days 193 124  
Since 1 July heating degree days 1826 2056  
Cooling Degree Days 0 1  
Month to date cooling degree days 0 3  
Year to date cooling degree days 20 6  
Growing Degree Days 8 (Base 50)    
Moisture  
Dew Point 46 °F    
Average Humidity 62    
Maximum Humidity 89    
Minimum Humidity 47    
Precipitation  
Precipitation T in 0.13 in 1.74 in (1967)
Month to date precipitation 0.06 1.45  
Year to date precipitation 8.22 9.02  
Sea Level Pressure  
Sea Level Pressure 30.04 in    
Wind  
Wind Speed 7 mph (SSE)    
Max Wind Speed 18 mph    
Max Gust Speed 24 mph    
Visibility 10 miles    
Events Rain    
T = Trace of Precipitation, MM = Missing Value Source: NWS Daily Summary

Daily Weather History Graph

Daily Weather History Graph

Search for Another Location

Airport or City:

Trip Planner

Search our weather history database for the weather conditions in past years. The results will help you decide how hot, cold, wet, or windy it might be!

Date:

Astronomy

Mar. 11, 2013 Rise Set
Actual Time 7:38 AM EDT 7:28 PM EDT
Civil Twilight 7:13 AM EDT 7:53 PM EDT
Nautical Twilight 6:45 AM EDT 8:22 PM EDT
Astronomical Twilight 6:16 AM EDT 8:50 PM EDT
Moon 7:13 AM EDT (3/11) 7:36 PM EDT (3/11)
Length of Visible Light 12h 39m
Length of Day
11h 49m
Waning Crescent, 0% of the Moon is Illuminated
Mar 11
Waning Crescent
Mar 11
New
Mar 19
First Quarter
Mar 27
Full
Apr 3
Last Quarter

Hourly Weather History & Observations

Time (EDT) Temp. Windchill Dew Point Humidity Pressure Visibility Wind Dir Wind Speed Gust Speed Precip Events Conditions
12:53 AM 50.0 °F - 33.1 °F 52% 30.21 in 10.0 mi Calm Calm - N/A   Clear
1:53 AM 48.9 °F - 32.0 °F 52% 30.19 in 10.0 mi Calm Calm - N/A   Clear
2:53 AM 48.9 °F - 30.9 °F 50% 30.17 in 10.0 mi Calm Calm - N/A   Clear
3:53 AM 46.9 °F - 32.0 °F 56% 30.14 in 10.0 mi Calm Calm - N/A   Clear
4:53 AM 46.0 °F 44.8 °F 34.0 °F 63% 30.12 in 9.0 mi ENE 3.5 mph - N/A   Clear
5:53 AM 46.0 °F 44.8 °F 37.0 °F 71% 30.12 in 9.0 mi ENE 3.5 mph - N/A   Clear
6:53 AM 46.9 °F - 41.0 °F 80% 30.12 in 10.0 mi Calm Calm - N/A   Clear
8:53 AM 50.0 °F - 46.0 °F 86% 30.12 in 10.0 mi Calm Calm - N/A   Partly Cloudy
9:53 AM 57.0 °F - 51.1 °F 81% 30.12 in 10.0 mi SE 6.9 mph - N/A   Mostly Cloudy
10:53 AM 64.9 °F - 52.0 °F 63% 30.11 in 10.0 mi Variable 4.6 mph - N/A   Clear
11:53 AM 68.0 °F - 52.0 °F 56% 30.09 in 10.0 mi South 10.4 mph 18.4 mph N/A   Mostly Cloudy
12:53 PM 70.0 °F - 50.0 °F 49% 30.07 in 10.0 mi South 13.8 mph 20.7 mph N/A   Mostly Cloudy
1:53 PM 71.1 °F - 50.0 °F 47% 30.04 in 10.0 mi South 13.8 mph 21.9 mph N/A   Mostly Cloudy
2:53 PM 70.0 °F - 50.0 °F 49% 30.00 in 10.0 mi South 10.4 mph 18.4 mph N/A   Overcast
3:53 PM 71.1 °F - 51.1 °F 49% 29.97 in 10.0 mi SSE 12.7 mph 19.6 mph N/A   Overcast
4:53 PM 71.1 °F - 51.1 °F 49% 29.96 in 10.0 mi SSE 15.0 mph 23.0 mph N/A   Mostly Cloudy
5:53 PM 69.1 °F - 51.1 °F 53% 29.94 in 10.0 mi South 13.8 mph 18.4 mph N/A   Partly Cloudy
6:53 PM 68.0 °F - 52.0 °F 56% 29.94 in 10.0 mi SSE 10.4 mph 16.1 mph N/A   Scattered Clouds
7:53 PM 66.0 °F - 53.1 °F 63% 29.91 in 10.0 mi SSE 12.7 mph - N/A   Clear
8:53 PM 64.9 °F - 54.0 °F 68% 29.92 in 10.0 mi SSE 6.9 mph - N/A   Clear
9:53 PM 64.0 °F - 54.0 °F 70% 29.92 in 10.0 mi SSE 8.1 mph - N/A   Clear
10:53 PM 63.0 °F - 55.0 °F 75% 29.90 in 10.0 mi SSE 5.8 mph - 0.00 in Rain Light Rain
11:53 PM 63.0 °F - 55.9 °F 78% 29.90 in 10.0 mi SSE 9.2 mph - 0.00 in Rain Light Rain